Find Starlink 36856

NORAD ID: 67883 Int'l Des: 2026-035 Owner: SPXS Country: US Constellation: starlink operational
LEOCIRCULARRETROGRADE

当前视图

正在加载3D地球...

关于 Starlink 36856

正在加载描述...

即将过境

Passes for default location (London). Set your location on the main map for personalized predictions.

高度历史

Loading altitude history...

两行轨道根数

1 67883U 26035E 26146.05381649 .00023314 00000-0 72209-3 0 9999
2 67883 97.2845 79.5562 0001514 102.1310 258.0103 15.33451184 15844
Epoch: May 26, 2026 • Age: 16 hours

当前状态

高度 477.2 km
速度 7.63 km/s
星下点 74.23°N, 90.07°W
发射日期 Feb 21, 2026
运行时间 0.2 years
类型 internet

技术详情

分类 Payload
质量 575.00 kg
干质量 530.00 kg
总质量 575.00 kg
长度 0.30 m
直径 4.10 m
跨度 29.00 m
形状 Box + pan
制造商 SPXS
平台类型 Starlink V2MO
阶段状态 In Orbit
所有者/国家 SPXS/US

Most Searched